EW5254 Weather Reports


Display with metric or nautical units.
time (UTC)temp
F
wind
direction
speed
MPH
gust
MPH
rain 1hr
in
rain 24hr
in
rain mn
in
humidity
%
barometer
mb
20260509111519 63 214 3.0 5.0 0.00 0.00 0.00 29 1003.0
20260509110018 63 214 2.0 4.0 0.00 0.00 0.00 29 1003.3
20260509104521 63 214 2.0 4.0 0.00 0.00 0.00 29 1003.2
20260509103017 63 214 2.0 5.0 0.00 0.00 0.00 29 1003.1
20260509101516 63 214 3.0 6.0 0.00 0.00 0.00 29 1002.9
20260509100015 62 214 3.0 5.0 0.00 0.00 0.00 31 1002.8
20260509094521 62 214 3.0 6.0 0.00 0.00 0.00 31 1002.7
20260509093015 62 214 4.0 6.0 0.00 0.00 0.00 31 1002.6
20260509091513 62 214 4.0 6.0 0.00 0.00 0.00 32 1002.6
20260509090036 61 214 4.0 6.0 0.00 0.00 0.00 33 1002.7
20260509084511 62 214 3.0 5.0 0.00 0.00 0.00 32 1002.7
20260509083023 63 214 2.0 5.0 0.00 0.00 0.00 30 1002.7
20260509081508 64 214 3.0 4.0 0.00 0.00 0.00 30 1002.7
20260509080011 64 214 3.0 5.0 0.00 0.00 0.00 30 1002.7
20260509074515 65 214 3.0 5.0 0.00 0.00 0.00 29 1002.6
20260509073007 66 214 3.0 5.0 0.00 0.00 0.00 28 1002.7
20260509071505 66 200 2.0 4.0 0.00 0.00 0.00 28 1002.7
20260509070001 65 117 3.0 6.0 0.00 0.00 0.00 29 1002.8
20260509064559 65 173 1.0 4.0 0.00 0.00 0.00 31 1002.8
20260509063118 64 181 3.0 4.0 0.00 0.00 0.00 32 1002.9
20260509061557 64 317 0.0 0.0 0.00 0.00 0.00 35 1003.1
20260509060054 63 317 0.0 0.0 0.00 0.00 0.00 36 1003.3
20260509054551 63 317 0.0 0.0 0.00 0.00 0.00 37 1003.4
20260509053048 63 317 0.0 0.0 0.00 0.00 0.00 38 1003.5
20260509051546 63 317 0.0 0.0 0.00 0.00 0.00 38 1003.7
20260509050053 63 317 0.0 2.0 0.00 0.00 0.00 37 1003.9
20260509044542 63 317 2.0 6.0 0.00 0.00 0.00 37 1003.8
20260509043046 63 308 2.0 4.0 0.00 0.00 0.00 38 1003.8
20260509041540 62 300 2.0 8.0 0.00 0.00 0.00 41 1003.8
20260509040040 62 338 4.0 8.0 0.00 0.00 0.00 42 1003.9
20260509034539 63 300 2.0 4.0 0.00 0.00 0.00 39 1003.7
20260509033052 63 300 0.0 3.0 0.00 0.00 0.00 39 1003.2
20260509031538 63 300 2.0 3.0 0.00 0.00 0.00 39 1003.2
20260509030037 63 300 1.0 3.0 0.00 0.00 0.00 39 1003.2
20260509024540 63 300 2.0 6.0 0.00 0.00 0.00 40 1002.8
20260509023037 63 254 4.0 8.0 0.00 0.00 0.00 41 1002.6
20260509021536 63 239 6.0 11.0 0.00 0.00 0.00 42 1002.4
20260509020037 64 246 7.0 12.0 0.00 0.00 0.00 43 1002.5
20260509014534 64 284 8.0 14.0 0.00 0.00 0.00 43 1002.4
20260509013038 66 281 6.0 12.0 0.00 0.00 0.00 40 1002.3
20260509011534 66 295 8.0 14.0 0.00 0.00 0.00 40 1002.5
20260509010036 66 291 5.0 14.0 0.00 0.00 0.00 43 1002.5
20260509004538 66 294 3.0 9.0 0.00 0.00 0.00 43 1002.5
20260509003033 65 329 5.0 10.0 0.00 0.00 0.00 40 1002.2
20260509001533 66 293 5.0 10.0 0.00 0.00 0.00 43 1002.9
20260509000041 65 342 7.0 17.0 0.00 0.00 0.00 42 1002.7
20260508234530 65 300 9.0 21.0 0.00 0.00 0.00 43 1002.6
20260508233031 67 317 10.0 19.0 0.00 0.00 0.00 39 1002.7
20260508231531 67 346 7.0 15.0 0.00 0.00 0.00 40 1003.0
20260508230029 65 311 9.0 19.0 0.00 0.00 0.00 42 1002.5
20260508224548 66 321 8.0 22.0 0.00 0.00 0.00 41 1002.2
20260508223028 64 296 12.0 21.0 0.00 0.00 0.00 44 1002.2
20260508221532 66 306 13.0 24.0 0.00 0.00 0.00 41 1001.9
20260508220032 68 319 14.0 25.0 0.00 0.00 0.00 38 1001.4
20260508214537 72 306 11.0 22.0 0.00 0.00 0.00 36 1001.4
20260508213031 72 355 7.0 16.0 0.00 0.00 0.00 52 1001.2
20260508211525 69 38 5.0 15.0 0.00 0.00 0.00 56 1000.8
20260508210024 69 355 7.0 17.0 0.00 0.00 0.00 56 1000.4
20260508204524 69 17 11.0 24.0 0.00 0.00 0.00 53 1000.2
20260508203021 72 314 9.0 24.0 0.00 0.00 0.00 47 999.8
20260508201520 76 30 12.0 21.0 0.00 0.00 0.00 44 1000.3
20260508200033 77 58 8.0 17.0 0.00 0.00 0.00 45 1000.6
20260508194516 75 68 9.0 19.0 0.00 0.00 0.00 47 1000.8
20260508193014 76 74 9.0 15.0 0.00 0.00 0.00 46 1000.9
20260508191513 74 82 11.0 16.0 0.00 0.00 0.00 50 1001.1
20260508190016 73 66 8.0 14.0 0.00 0.00 0.00 51 1001.3
20260508184513 73 55 9.0 16.0 0.00 0.00 0.00 50 1001.5
20260508183007 75 63 7.0 11.0 0.00 0.00 0.00 47 1001.8
20260508181505 78 14 1.0 9.0 0.00 0.00 0.00 42 1002.0
20260508180002 77 139 3.0 7.0 0.00 0.00 0.00 42 1002.3
20260508174559 75 171 3.0 7.0 0.00 0.00 0.00 45 1002.6
20260508173103 74 19 4.0 11.0 0.00 0.00 0.00 47 1002.7
20260508171555 74 190 4.0 13.0 0.00 0.00 0.00 48 1003.0
20260508170050 73 269 4.0 9.0 0.00 0.00 0.00 49 1003.1
20260508164546 71 242 2.0 7.0 0.00 0.00 0.00 53 1003.4
20260508163047 70 200 5.0 10.0 0.00 0.00 0.00 53 1003.6
20260508161541 70 261 3.0 7.0 0.00 0.00 0.00 56 1003.8
20260508160040 68 209 0.0 8.0 0.00 0.00 0.00 58 1004.0
20260508154535 67 233 4.0 11.0 0.00 0.00 0.00 60 1004.1
20260508153032 66 247 5.0 12.0 0.00 0.00 0.00 64 1004.1
20260508151527 65 238 4.0 10.0 0.00 0.00 0.00 67 1004.0
20260508150031 64 215 5.0 11.0 0.00 0.00 0.00 69 1004.0
20260508144536 63 217 8.0 11.0 0.00 0.00 0.00 71 1004.0
20260508143027 61 208 8.0 10.0 0.00 0.00 0.00 75 1004.1
20260508141522 60 189 6.0 10.0 0.00 0.00 0.00 79 1004.0
20260508140010 59 209 6.0 9.0 0.00 0.00 0.00 84 1004.1
20260508134507 57 205 6.0 9.0 0.00 0.00 0.00 87 1004.0
20260508133007 56 198 5.0 11.0 0.00 0.00 0.00 88 1004.1
20260508131506 55 193 6.0 11.0 0.00 0.00 0.00 88 1003.9
20260508130005 56 195 8.0 13.0 0.00 0.00 0.00 87 1003.8
20260508124503 56 157 5.0 9.0 0.00 0.00 0.00 87 1003.8
20260508123003 56 167 5.0 8.0 0.00 0.00 0.00 88 1003.7
20260508121504 54 159 2.0 7.0 0.00 0.00 0.00 89 1003.7
20260508120003 55 157 3.0 7.0 0.00 0.00 0.00 89 1003.8
20260508114504 55 130 1.0 7.0 0.00 0.00 0.00 89 1003.7
20260508113001 55 98 1.0 7.0 0.00 0.00 0.00 91 1003.7